OpenBCM V1.08-5-g2f4a (Linux)

Packet Radio Mailbox

IZ3LSV

[San Dona' di P. JN]

 Login: GUEST





  
I0OJJ  > KEPS     06.04.25 02:25l 352 Lines 16783 Bytes #17 (0) @ AMSAT
BID : ORB25096.1
Read: GUEST
Subj: 2Line Orbital Elements 25096.AMSAT
Path: IZ3LSV<I0OJJ
Sent: 250406/0025z @:I0OJJ.ITA.EU [Rome] obcm1.08-6-g5b69
From: I0OJJ @ I0OJJ.ITA.EU (Gustavo)
To:   KEPS @ AMSAT
X-Info: This message was generated automatically


QST de W1STR

AMSAT Orbital Elements for Amateur Satellites in TLE Format
From Orbital Analysis Office
New England Sci-Tech STEM Education Center
Natick, MA April 06, 2025
To all radio amateurs


These element sets describe the orbits of various satellites 
in use by the amateur radio community. For details see:
www.amsat.org/keplerian-elements-formats/

A daily update of element sets is available at:
www.amsat.org/tle/daily-bulletin.txt
or without bulletin text:
www.amsat.org/tle/dailytle.txt


AO-07
1 07530U 74089B   25095.54581729 -.00000026  00000-0  12628-3 0  9996
2 07530 101.9952  99.1138 0011892 245.4943 245.5555 12.53687888305912
UO-11
1 14781U 84021B   25095.15945581  .00003750  00000-0  40326-3 0  9998
2 14781  97.7479  62.8602 0007565 180.6769 179.4439 14.89089188212907
AO-27
1 22825U 93061C   25095.88085596  .00000284  00000-0  12575-3 0  9995
2 22825  98.7433 157.0950 0007408 306.9099  53.1404 14.30768095644731
FO-29
1 24278U 96046B   25095.46759210  .00000027  00000-0  61064-4 0  9993
2 24278  98.5823 357.9134 0350439 151.1365 210.9665 13.53242466414215
NOAA-15
1 25338U 98030A   25095.81109498  .00000397  00000-0  18084-3 0  9995
2 25338  98.5421 122.4827 0010275 182.3596 177.7538 14.26933167399165
GO-32
1 25397U 98043D   25095.85193062  .00000270  00000-0  13723-3 0  9993
2 25397  98.9656  73.6384 0002160  60.3574 299.7819 14.24289505389292
ISS
1 25544U 98067A   25095.84349512  .00015232  00000-0  28134-3 0  9991
2 25544  51.6370 305.3260 0004931  12.6252 347.4859 15.49274177503946
NO-44
1 26931U 01043C   25095.88822969  .00000453  00000-0  20067-3 0  9992
2 26931  67.0502 295.0974 0005561 269.1677  90.8788 14.31685036228003
SO-50
1 27607U 02058C   25094.87334452  .00004804  00000-0  61907-3 0  9995
2 27607  64.5553  43.3187 0048603 349.8371  10.1747 14.81335482199709
CO-55
1 27844U 03031E   25095.54304413  .00000832  00000-0  38177-3 0  9999
2 27844  98.6787 104.6509 0010057  23.5462 336.6175 14.23920736129417
CO-57
1 27848U 03031J   25095.46127324  .00000702  00000-0  32920-3 0  9994
2 27848  98.6816 104.6246 0010267  39.8023 320.3906 14.23265895129159
RS-22
1 27939U 03042A   25095.84718046  .00003369  00000-0  54328-3 0  9994
2 27939  98.3223 263.7623 0011046 210.0109 286.5691 14.72099473151306
NOAA-18
1 28654U 05018A   25095.85718144  .00000414  00000-0  24298-3 0  9995
2 28654  98.8437 176.0587 0013243 315.8791  44.1324 14.13566500 24608
CO-58
1 28895U 05043F   25095.07584542  .00004943  00000-0  81879-3 0  9996
2 28895  98.2384 238.6579 0015444 151.7617 208.4429 14.70653268 37544
CO-65
1 32785U 08021C   25095.53931008  .00013885  00000-0  10220-2 0  9998
2 32785  97.7781  66.2839 0011686  74.0939 286.1573 15.03431121919376
AAUSAT2
1 32788U 08021F   25095.47223875  .00284563  00000-0  27982-2 0  9996
2 32788  97.6041  90.3146 0007388 136.0720 224.1128 15.65079905923231
CO-66
1 32791U 08021J   25095.17168061  .00031077  00000-0  15939-2 0  9991
2 32791  97.7238  73.8672 0006124  58.1603 302.0225 15.16470828920657
RS-30
1 32953U 08025A   25095.85767209  .00000059  00000-0  35342-3 0  9996
2 32953  82.4979 267.4347 0019535 184.4830 175.6078 12.43161607765493
NOAA-19
1 33591U 09005A   25095.85306422  .00000371  00000-0  22187-3 0  9990
2 33591  99.0030 160.1801 0013893 182.5051 177.6053 14.13331907832966
SRMSAT
1 37841U 11058D   25095.56578044  .00000627  00000-0  19697-3 0  9998
2 37841  19.9707 187.9695 0011927  69.7542  47.0142 14.11404124696131
ZACUBE-1
1 39417U 13066B   25095.85269917  .00010886  00000-0  96203-3 0  9994
2 39417  97.7737  53.2710 0042797 268.5777  91.0541 14.95806530615233
Delfi-N3xt
1 39428U 13066N   25095.05631059  .00015520  00000-0  16190-2 0  9994
2 39428  97.8354  13.4963 0085311 215.1636 144.3932 14.87141026609513
GOMX-1
1 39430U 13066Q   25095.84726246  .00005021  00000-0  78476-3 0  9998
2 39430  97.6930 318.4655 0134258  40.1077 320.9946 14.67289046605910
LO-74
1 39440U 13066AA  25095.11774834  .00012511  00000-0  12802-2 0  9997
2 39440  97.8438  40.1842 0064443  37.5498 323.0194 14.89107773612892
AO-73
1 39444U 13066AE  25095.84964065  .00016735  00000-0  12913-2 0  9993
2 39444  97.7665  57.6164 0039559 244.3642 115.3492 15.01022981614466
DTUSAT-2
1 40030U 14033W   25095.18585572  .00017386  00000-0  11637-2 0  9995
2 40030  98.0509  63.9222 0007248 285.6549  74.3877 15.06974687587058
EO-80
1 40032U 14033Y   25095.14293622  .00018031  00000-0  12042-2 0  9994
2 40032  98.0379  63.6231 0007380 209.4363 150.6449 15.07048287587037
LILACSAT-2
1 40908U 15049K   25095.87592570  .00022534  00000-0  62349-3 0  9997
2 40908  97.5128 114.7246 0010679  43.7540 316.4548 15.36960521528280
IO-86
1 40931U 15052B   25038.81889873  .00001817  00000-0  15548-3 0  9993
2 40931   6.0001 108.1159 0012838 187.7041 172.2889 14.78568669506492
Horyu-4
1 41340U 16012D   25095.59557066  .00042229  00000-0  12670-2 0  9993
2 41340  30.9971 207.8885 0008865 103.8035 256.3597 15.33203075502797
Lapan A3
1 41603U 16040E   25095.86625893  .00006827  00000-0  24275-3 0  9999
2 41603  97.1399 103.0333 0012647 133.5668 226.6625 15.29223112487892
CAS-2T
1 41847U 16066G   25095.17319541  .00002714  00000-0  39386-3 0  9991
2 41847  98.4230 170.1988 0347151  16.5578 344.6618 14.43282879441581
CAS-4B
1 42759U 17034B   25095.89272157  .00079870  00000-0  11716-2 0  9993
2 42759  43.0106 345.0012 0018505 204.5552 155.4430 15.54384348432501
CAS-4A
1 42761U 17034D   25095.83919743  .00082234  00000-0  11736-2 0  9999
2 42761  43.0140 343.0225 0019911 208.5326 151.4448 15.55087094432516
TechnoSat
1 42829U 17042E   25095.73397866  .00008359  00000-0  65535-3 0  9991
2 42829  97.3922 267.5482 0014428 135.2809 224.9582 15.01121430420994
AO-91
1 43017U 17073E   25095.86456168  .00020698  00000-0  10806-2 0  9990
2 43017  97.5340 328.2925 0177272  27.2527 333.7865 15.03291225399485
S-Net D
1 43186U 18014G   25095.28803857  .00013845  00000-0  83316-3 0  9993
2 43186  97.5669 358.8804 0011131  89.3486 270.9019 15.10893073392512
S-Net B
1 43187U 18014H   25095.68999644  .00012130  00000-0  73063-3 0  9992
2 43187  97.5675 359.2460 0011895  84.6380 275.6207 15.10883105392573
S-Net A
1 43188U 18014J   25094.69259701  .00010975  00000-0  66162-3 0  9993
2 43188  97.5681 358.4017 0011809  87.8473 272.4109 15.10879776392422
S-Net C
1 43189U 18014K   25095.22866036  .00013091  00000-0  78809-3 0  9992
2 43189  97.5695 358.9350 0013323  80.0189 280.2544 15.10869521391050
Ten-Koh
1 43677U 18084G   25095.03909040  .00006497  00000-0  52541-3 0  9990
2 43677  98.0960 264.6836 0010335 132.6568 227.5527 15.00110119350411
PO-101
1 43678U 18084H   25095.86924724  .00005590  00000-0  47972-3 0  9993
2 43678  98.0990 269.5530 0008899 140.8521 219.3346 14.97883113350696
QO-100
1 43700U 18090A   25095.50253081  .00000128  00000-0  00000+0 0  9997
2 43700   0.0021 165.6051 0001385 235.9722 359.1745  1.00269974 23535
MinXSS-2
1 43758U 18099A   25095.41719557  .00035460  00000-0  15001-2 0  9991
2 43758  97.5078 161.3381 0012136  32.3502 327.8476 15.23047641347044
AO-95
1 43770U 18099N   25095.12939679  .00022872  00000-0  12026-2 0  9999
2 43770  97.4988 153.9828 0012431  84.2459 276.0190 15.15606488346638
RANGE-A
1 43773U 18099R   25095.07384852  .00011233  00000-0  72747-3 0  9999
2 43773  97.4570 145.3817 0012791  62.4795 297.7732 15.08238967346346
MOVE-II
1 43780U 18099Y   25095.46486546  .00165593  00000-0  25794-2 0  9991
2 43780  97.4717 167.3060 0000428 329.2212  30.9016 15.53288646347626
SNUSat 2
1 43782U 18099AA  25094.71378208  .00015751  00000-0  88759-3 0  9996
2 43782  97.4667 150.8473 0012549  28.5708 331.6208 15.13217036346537
SnugLite
1 43784U 18099AC  25095.70130084  .00020516  00000-0  10714-2 0  9996
2 43784  97.4488 151.2565 0003920  45.5053 314.6500 15.15930554346807
ITASat 1
1 43786U 18099AE  25094.71656985  .00013178  00000-0  77323-3 0  9997
2 43786  97.4640 150.5439 0016017  77.2023 283.0996 15.11759619346503
EAGLET 1
1 43790U 18099AJ  25095.68687189  .00010175  00000-0  65833-3 0  9996
2 43790  97.4845 151.6465 0013406  57.7642 302.4884 15.08292110346286
ESEO
1 43792U 18099AL  25094.73513413  .00004037  00000-0  30975-3 0  9990
2 43792  97.4580 144.8414 0012553  37.1343 323.0749 15.02271016345930
CSIM
1 43793U 18099AM  25095.50371230  .00149613  00000-0  22975-2 0  9996
2 43793  97.4905 169.4794 0003726 326.3108  33.7908 15.53737861347474
JO-97
1 43803U 18099AX  25095.14659599  .00028007  00000-0  13436-2 0  9990
2 43803  97.4738 154.8695 0007591  26.4764 333.6856 15.18821745346837
Suomi 100
1 43804U 18099AY  25095.72158533  .00021576  00000-0  10990-2 0  9993
2 43804  97.4796 154.9046 0012619  20.8024 339.3720 15.16738152346860
ISAT
1 43879U 18111D   25095.22430625  .00046005  00000-0  17496-2 0  9992
2 43879  97.5991   8.3098 0012155  73.3603 286.8968 15.26558192341691
UWE-4
1 43880U 18111E   25095.17797567  .00037153  00000-0  15594-2 0  9990
2 43880  97.5928   7.1651 0015186  81.7307 278.5651 15.23265908341667
Sparrow
1 43881U 18111F   25095.18956365  .00047741  00000-0  17598-2 0  9995
2 43881  97.6118  10.9137 0010218 103.7875 256.4501 15.27602933341797
Prox-1
1 44339U 19036A   25095.51856814  .00020394  00000-0  27150-2 0  9996
2 44339  23.9967 128.6430 0007219  56.5496 303.5690 14.78136549308464
SONATE
1 44400U 19038Q   25095.63290249  .00153478  00000-0  12658-2 0  9991
2 44400  97.7028 115.0364 0010631 126.8278 233.3960 15.69801415319315
Taurus 1
1 44530U 19059C   25095.85666947  .00018641  00000-0  35113-2 0  9997
2 44530  98.5976 232.2602 0010296 228.5462 131.4856 14.64560283294468
